1495767601.0,59001,13.06,73782.8,-4.19,-4.81,-4.69,0,*57
1495767602.25,59002,13.06,73780.3,-4.17,-4.69,-4.69,0,*5C
1495767603.5,59003,13.06,73778.8,-4.17,-4.69,-4.69,0,*5D
1495767604.75,59004,13.06,73780.5,-4.17,-4.81,-4.81,0,*5A
1495767606.03,59005,13.06,73780.3,-4.15,-4.93,-4.89,0,*52
1495767607.3,59006,13.06,73780.3,-4.15,-4.93,-4.89,0,*51
1495767608.55,59007,13.06,73778.8,-4.17,-4.93,-4.89,0,*52
1495767609.82,59008,13.06,73778.8,-4.15,-4.93,-4.93,0,*54
1495767611.07,59009,13.06,73782.8,-4.15,-4.93,-4.99,0,*5F
1495767612.35,59010,13.06,73778.3,-4.15,-5.07,-5.07,0,*5D
1495767613.61,59011,13.06,73780.5,-4.17,-5.11,-5.19,0,*56
1495767614.84,59012,13.06,73782.3,-4.19,-5.35,-5.35,0,*53
1495767616.1,59013,13.06,73780.8,-4.17,-5.19,-5.23,0,*55
1495767617.38,59014,13.06,73780.3,-4.19,-5.15,-5.15,0,*55
1495767618.64,59015,13.06,73780.8,-4.17,-5.11,-5.11,0,*5A
1495767619.84,59016,13.06,73780.8,-4.17,-4.99,-4.99,0,*59
1495767621.08,59017,13.06,73780.3,-4.17,-4.93,-4.93,0,*58
1495767622.33,59018,13.06,73782.3,-4.17,-4.93,-4.93,0,*57
1495767623.58,59019,13.06,73778.8,-4.17,-4.81,-4.89,0,*5E
1495767624.83,59020,13.06,73778.3,-4.17,-4.77,-4.81,0,*55
1495767626.08,59021,13.06,73782.5,-4.17,-4.81,-4.81,0,*5D
1495767627.33,59022,13.06,73778.3,-4.17,-4.81,-4.81,0,*5E
1495767628.58,59023,13.06,73782.8,-4.15,-4.93,-4.99,0,*57
1495767629.83,59024,13.06,73780.8,-4.15,-5.07,-4.99,0,*5C
1495767631.08,59025,13.06,73778.8,-4.15,-4.99,-5.19,0,*52
1495767632.37,59026,13.06,73780.5,-4.15,-5.19,-5.11,0,*50
1495767633.65,59027,13.06,73782.3,-4.15,-5.19,-5.19,0,*59
1495767634.93,59028,13.06,73782.8,-4.15,-5.11,-5.19,0,*5E
1495767636.19,59029,13.06,73780.5,-4.17,-5.19,-5.19,0,*55
1495767637.44,59030,13.06,73784.0,-4.17,-5.11,-5.11,0,*5D
1495767638.72,59031,13.06,73782.8,-4.15,-5.11,-5.11,0,*5E
1495767640.0,59032,13.06,73778.5,-4.15,-5.11,-5.11,0,*5D
1495767641.28,59033,13.06,73778.3,-4.15,-4.89,-4.81,0,*54
1495767642.52,59034,13.06,73776.8,-4.17,-4.93,-4.93,0,*59
1495767643.77,59035,13.06,73780.3,-4.15,-4.93,-4.99,0,*50
1495767645.06,59036,13.06,73782.8,-4.15,-5.07,-5.07,0,*59
1495767646.28,59037,13.06,73778.5,-4.15,-4.99,-4.99,0,*58
1495767647.57,59038,13.06,73778.3,-4.15,-5.07,-5.07,0,*57
1495767648.85,59039,13.06,73780.5,-4.15,-5.07,-5.07,0,*56
1495767650.14,59040,13.06,73780.3,-4.15,-5.19,-5.19,0,*58
1495767651.39,59041,13.06,73778.5,-4.17,-5.11,-5.11,0,*5B
1495767652.68,59042,13.06,73782.8,-4.19,-5.15,-5.15,0,*56
1495767653.9,59043,13.06,73778.5,-4.15,-4.99,-4.99,0,*5B
1495767655.14,59044,13.06,73780.8,-4.15,-4.93,-4.99,0,*56
1495767656.4,59045,13.06,73782.0,-4.17,-5.11,-5.07,0,*58
1495767657.66,59046,13.06,73776.3,-4.17,-5.19,-5.23,0,*55
1495767658.89,59047,13.06,73776.5,-4.17,-4.99,-5.11,0,*5C
1495767660.09,59048,13.06,73782.3,-4.17,-4.99,-4.99,0,*52
1495767661.28,59049,13.06,73780.8,-4.17,-4.99,-4.99,0,*53
1495767662.57,59050,13.06,73780.3,-4.15,-5.07,-5.07,0,*59
1495767663.84,59051,13.06,73778.0,-4.13,-5.07,-5.03,0,*5A
1495767665.13,59052,13.06,73780.5,-4.15,-5.23,-5.23,0,*5B
1495767666.42,59053,13.06,73782.3,-4.15,-5.07,-5.07,0,*5A
1495767667.7,59054,13.06,73782.3,-4.15,-5.07,-5.07,0,*5D
1495767668.93,59055,13.06,73782.3,-4.17,-4.99,-4.93,0,*54
1495767670.15,59056,13.06,73782.3,-4.17,-4.99,-4.93,0,*57
1495767671.38,59057,13.06,73780.0,-4.17,-5.07,-4.99,0,*5A
1495767672.66,59058,13.06,73778.0,-4.15,-5.11,-5.07,0,*56
1495767673.89,59059,13.06,73780.0,-4.15,-4.99,-4.99,0,*50
1495767675.16,59060,13.06,73782.5,-4.15,-4.93,-4.93,0,*5A
1495767676.35,59061,13.06,73780.5,-4.17,-4.99,-4.99,0,*59
1495767677.61,59062,13.06,73782.5,-4.13,-4.93,-5.03,0,*56
1495767678.88,59063,13.06,73780.3,-4.15,-4.89,-4.93,0,*52
1495767680.13,59064,13.06,73782.5,-4.17,-4.93,-4.89,0,*57
1495767681.38,59065,13.06,73778.5,-4.17,-4.93,-4.89,0,*56
1495767682.63,59066,13.06,73778.8,-4.17,-4.77,-4.77,0,*5E
1495767683.88,59067,13.06,73780.0,-4.17,-4.81,-4.77,0,*56
1495767685.13,59068,13.06,73780.3,-4.17,-4.81,-4.77,0,*59
1495767686.4,59069,13.06,73782.5,-4.15,-4.93,-4.93,0,*53
1495767687.65,59070,13.06,73782.5,-4.13,-4.89,-4.89,0,*5D
1495767688.92,59071,13.06,73778.0,-4.13,-5.03,-4.89,0,*5F
1495767690.17,59072,13.06,73778.8,-4.13,-4.89,-4.89,0,*5F
1495767691.45,59073,13.06,73780.5,-4.15,-4.89,-4.93,0,*53
1495767692.7,59074,13.06,73780.5,-4.13,-4.93,-5.03,0,*51
1495767693.92,59075,13.06,73778.8,-4.15,-4.99,-4.99,0,*5E
1495767695.18,59076,13.06,73780.0,-4.13,-4.85,-4.85,0,*5B
1495767696.45,59077,13.06,73778.3,-4.15,-4.89,-4.81,0,*54
1495767697.72,59078,13.06,73778.3,-4.13,-5.03,-4.89,0,*56
1495767699.0,59079,13.06,73776.0,-4.15,-5.19,-5.19,0,*52
1495767700.26,59080,13.06,73782.0,-4.13,-5.07,-5.15,0,*51
1495767701.48,59081,13.06,73782.8,-4.15,-4.99,-4.99,0,*55
1495767702.73,59082,13.06,73782.5,-4.13,-4.93,-4.93,0,*50
1495767703.97,59083,13.13,73782.0,-4.13,-4.93,-4.93,0,*51
1495767705.2,59084,13.06,73778.5,-4.15,-4.99,-4.99,0,*50
1495767706.42,59085,13.06,73780.3,-4.15,-4.99,-4.99,0,*51
1495767707.66,59086,13.06,73778.0,-4.13,-4.93,-4.93,0,*54
1495767708.92,59087,13.06,73780.5,-4.13,-4.89,-4.89,0,*55
1495767710.18,59088,13.06,73776.8,-4.13,-4.89,-4.89,0,*5A
1495767711.43,59089,13.06,73776.0,-4.13,-4.93,-4.85,0,*5C
1495767712.67,59090,13.06,73778.5,-4.13,-4.77,-4.73,0,*57
1495767713.92,59091,13.06,73782.5,-4.13,-4.77,-4.73,0,*56
1495767715.17,59092,13.06,73780.3,-4.13,-4.73,-4.73,0,*51
1495767716.42,59093,13.06,73780.5,-4.13,-4.85,-4.85,0,*50
1495767717.68,59094,13.06,73778.3,-4.13,-4.93,-5.03,0,*5F
1495767718.94,59095,13.06,73780.0,-4.13,-5.07,-4.93,0,*5A
1495767720.19,59096,13.06,73780.5,-4.13,-4.89,-4.93,0,*5E
1495767721.44,59097,13.06,73778.3,-4.13,-4.85,-4.85,0,*54
1495767722.7,59098,13.06,73782.5,-4.13,-4.89,-4.85,0,*57
1495767723.97,59099,13.06,73776.3,-4.11,-4.89,-4.89,0,*58
1495767725.25,59100,13.06,73778.3,-4.11,-4.89,-4.93,0,*52
1495767726.5,59101,13.06,73780.0,-4.13,-4.89,-4.89,0,*5A
1495767727.76,59102,13.06,73778.3,-4.13,-4.89,-4.89,0,*59
1495767729.02,59103,13.06,73778.8,-4.13,-5.03,-5.03,0,*58
1495767730.28,59104,13.06,73782.5,-4.13,-5.03,-4.93,0,*57
1495767731.53,59105,13.06,73778.0,-4.13,-4.93,-4.93,0,*5E
1495767732.81,59106,13.06,73780.3,-4.11,-4.89,-4.85,0,*53
1495767734.07,59107,13.06,73782.8,-4.11,-4.73,-4.73,0,*5E
1495767735.34,59108,13.06,73780.3,-4.11,-4.73,-4.73,0,*51
1495767736.61,59109,13.06,73782.5,-4.11,-4.73,-4.77,0,*54
1495767737.85,59110,13.06,73780.5,-4.09,-4.85,-4.77,0,*5C
1495767739.1,59111,13.06,73780.5,-4.11,-4.77,-4.65,0,*5A
1495767740.36,59112,13.06,73780.8,-4.11,-4.77,-4.77,0,*5A
1495767741.63,59113,13.06,73780.5,-4.11,-4.85,-4.85,0,*5B
1495767742.9,59114,13.06,73776.5,-4.11,-4.85,-4.89,0,*50
1495767744.17,59115,13.06,73780.5,-4.11,-4.85,-4.77,0,*50
1495767745.44,59116,13.06,73776.0,-4.11,-4.77,-4.77,0,*5E
1495767746.7,59117,13.06,73778.0,-4.11,-4.77,-4.73,0,*5B
1495767747.9,59118,13.06,73778.0,-4.09,-4.61,-4.61,0,*59
1495767749.1,59119,13.06,73776.5,-4.09,-4.65,-4.61,0,*5C
1495767750.33,59120,13.06,73778.5,-4.09,-4.65,-4.77,0,*51
1495767751.57,59121,13.06,73776.8,-4.09,-4.73,-4.77,0,*57
1495767752.81,59122,13.06,73780.3,-4.09,-4.73,-4.73,0,*50
1495767754.05,59123,13.06,73778.3,-4.09,-4.77,-4.77,0,*51
1495767755.3,59124,13.06,73782.3,-4.05,-4.77,-4.73,0,*5E
1495767756.55,59125,13.13,73782.5,-4.05,-4.85,-4.81,0,*5F
1495767757.76,59126,13.06,73780.5,-4.05,-4.57,-4.61,0,*5D
1495767758.97,59127,13.06,73776.5,-4.05,-4.57,-4.57,0,*59
1495767760.22,59128,13.06,73776.8,-4.05,-4.73,-4.73,0,*56
1495767761.47,59129,13.06,73778.5,-4.05,-4.85,-4.85,0,*57
1495767762.72,59130,13.06,73778.5,-4.05,-4.85,-4.89,0,*53
1495767763.97,59131,13.06,73776.5,-4.05,-4.85,-4.85,0,*5E
1495767765.2,59132,13.06,73778.3,-4.05,-4.99,-4.89,0,*5C
1495767766.45,59133,13.06,73782.3,-4.05,-4.89,-4.85,0,*50
1495767767.7,59134,13.06,73778.5,-4.05,-4.81,-4.73,0,*56
1495767768.95,59135,13.06,73776.0,-4.05,-4.81,-4.73,0,*57
1495767770.2,59136,13.06,73776.5,-4.05,-4.85,-4.85,0,*59
1495767771.4,59137,13.06,73778.5,-4.05,-4.99,-4.99,0,*58
1495767772.63,59138,13.06,73782.8,-4.05,-4.99,-5.03,0,*55
1495767773.85,59139,13.06,73778.8,-4.03,-5.03,-4.99,0,*52
1495767775.05,59140,13.06,73780.5,-4.05,-4.99,-4.99,0,*58
1495767776.31,59141,13.06,73778.0,-4.05,-5.11,-5.23,0,*58
1495767777.56,59142,13.06,73776.3,-4.03,-5.11,-5.11,0,*5C
1495767778.82,59143,13.06,73776.0,-4.09,-5.07,-5.07,0,*57
1495767780.09,59144,13.06,73780.0,-4.11,-4.93,-5.03,0,*51
1495767781.33,59145,13.06,73776.0,-4.09,-4.93,-4.93,0,*51
1495767782.57,59146,13.06,73778.3,-4.09,-4.93,-4.93,0,*52
1495767783.81,59147,13.06,73776.5,-4.09,-4.93,-4.93,0,*53
1495767785.06,59148,13.13,73780.3,-4.05,-4.85,-4.81,0,*54
1495767786.31,59149,13.06,73774.0,-4.09,-4.89,-4.85,0,*51
1495767787.56,59150,13.06,73782.0,-4.05,-4.85,-4.85,0,*59
1495767788.79,59151,13.06,73776.8,-4.05,-4.99,-5.03,0,*5A
1495767790.05,59152,13.06,73776.8,-4.09,-5.07,-5.07,0,*57
1495767791.31,59153,13.06,73776.5,-4.09,-5.07,-5.07,0,*56
1495767792.59,59154,13.06,73776.0,-4.11,-5.15,-5.15,0,*58
1495767793.85,59155,13.06,73776.8,-4.09,-5.15,-5.07,0,*53
1495767795.1,59156,13.06,73780.3,-4.09,-5.03,-4.93,0,*5B
1495767796.36,59157,13.06,73776.8,-4.09,-5.03,-5.03,0,*52
1495767797.62,59158,13.06,73782.3,-4.09,-5.03,-5.03,0,*5D
1495767798.86,59159,13.06,73778.0,-4.09,-4.93,-5.03,0,*54
1495767800.12,59160,13.06,73780.0,-4.09,-5.15,-5.19,0,*5A
1495767801.38,59161,13.06,73780.8,-4.09,-5.07,-5.07,0,*57
1495767802.66,59162,13.06,73776.8,-4.11,-5.15,-5.07,0,*5E
1495767803.92,59163,13.06,73776.8,-4.09,-5.15,-5.07,0,*56
1495767805.18,59164,13.06,73778.5,-4.09,-5.15,-5.07,0,*51
1495767806.43,59165,13.06,73782.3,-4.09,-5.27,-5.19,0,*5E
1495767807.68,59166,13.06,73780.0,-4.09,-5.27,-5.19,0,*5D
1495767808.97,59167,13.06,73780.5,-4.11,-5.07,-5.07,0,*58
1495767810.25,59168,13.06,73780.5,-4.11,-5.03,-5.03,0,*57
1495767811.52,59169,13.06,73776.3,-4.11,-4.93,-5.03,0,*5E
1495767812.8,59170,13.06,73776.3,-4.11,-5.15,-5.15,0,*5E
1495767814.06,59171,13.06,73776.3,-4.09,-5.07,-5.15,0,*55
1495767815.32,59172,13.06,73782.0,-4.09,-5.07,-5.15,0,*56
1495767816.57,59173,13.06,73778.0,-4.09,-5.03,-4.93,0,*5C
1495767817.85,59174,13.06,73778.3,-4.11,-5.15,-5.15,0,*5A
1495767819.13,59175,13.06,73778.0,-4.11,-5.15,-5.15,0,*5B
1495767820.41,59176,13.06,73776.0,-4.11,-5.07,-5.07,0,*58
1495767821.68,59177,13.06,73778.8,-4.11,-4.93,-4.93,0,*59
1495767822.94,59178,13.06,73780.0,-4.11,-4.77,-4.73,0,*52
1495767824.21,59179,13.06,73780.8,-4.11,-4.85,-4.85,0,*57
1495767825.48,59180,13.06,73780.8,-4.11,-4.85,-4.85,0,*51
1495767826.73,59181,13.06,73778.3,-4.09,-4.73,-4.73,0,*59
1495767827.92,59182,13.06,73776.8,-4.09,-4.49,-4.41,0,*52
1495767829.12,59183,13.06,73778.5,-4.09,-4.53,-4.53,0,*5B
1495767830.36,59184,13.06,73782.3,-4.09,-4.85,-4.77,0,*51
1495767831.61,59185,13.06,73780.5,-4.09,-4.89,-4.89,0,*5D
1495767832.86,59186,13.06,73782.0,-4.09,-4.89,-4.89,0,*5E
1495767834.11,59187,13.06,73782.8,-4.09,-4.89,-4.93,0,*54
1495767835.35,59188,13.06,73782.0,-4.09,-4.77,-4.77,0,*50
1495767836.59,59189,13.06,73780.5,-4.09,-4.73,-4.77,0,*55
1495767837.79,59190,13.06,73776.8,-4.05,-4.99,-4.99,0,*55
1495767839.03,59191,13.06,73780.3,-4.09,-4.93,-4.93,0,*58
1495767840.28,59192,13.06,73778.5,-4.05,-4.85,-4.85,0,*57
1495767841.53,59193,13.06,73780.5,-4.05,-4.85,-4.89,0,*5A
1495767842.79,59194,13.06,73780.8,-4.09,-5.03,-5.03,0,*5D
1495767844.04,59195,13.06,73782.3,-4.05,-4.85,-4.85,0,*50
1495767845.26,59196,13.06,73782.0,-4.05,-4.69,-4.61,0,*5B
1495767846.51,59197,13.06,73780.8,-4.05,-4.85,-4.85,0,*52
1495767847.76,59198,13.06,73776.8,-4.03,-4.77,-4.69,0,*54
1495767848.99,59199,13.06,73776.8,-4.05,-4.61,-4.69,0,*54
1495767850.21,59200,13.06,73774.0,-4.05,-4.73,-4.61,0,*5C
1495767851.42,59201,13.06,73774.8,-4.03,-4.65,-4.65,0,*58
1495767852.63,59202,13.06,73776.8,-4.05,-4.33,-4.25,0,*5A
1495767853.84,59203,13.06,73778.0,-4.05,-4.29,-4.29,0,*5C
1495767855.04,59204,13.06,73778.3,-4.03,-4.53,-4.53,0,*5D
1495767856.28,59205,13.06,73774.0,-4.03,-4.69,-4.69,0,*5C
1495767857.53,59206,13.06,73778.8,-4.03,-4.81,-4.81,0,*5F
1495767858.77,59207,13.06,73778.8,-4.03,-4.81,-4.81,0,*5E
1495767860.02,59208,13.06,73776.5,-4.03,-4.81,-4.77,0,*58
1495767861.27,59209,13.06,73776.3,-4.05,-4.73,-4.73,0,*56
1495767862.51,59210,13.06,73780.3,-4.03,-4.69,-4.77,0,*57
1495767863.75,59211,13.06,73780.0,-4.03,-4.77,-4.77,0,*59
1495767864.99,59212,13.06,73780.5,-4.03,-4.69,-4.77,0,*55
1495767866.19,59213,13.06,73776.0,-4.03,-4.53,-4.41,0,*58
1495767867.44,59214,13.06,73776.8,-4.01,-4.65,-4.69,0,*52
1495767868.64,59215,13.06,73778.8,-3.99,-4.49,-4.49,0,*59
1495767869.87,59216,13.06,73776.8,-4.01,-4.09,-4.09,0,*5C
1495767871.07,59217,13.06,73776.3,-3.99,-4.37,-4.37,0,*5B
1495767872.29,59218,13.06,73780.3,-3.99,-4.69,-4.61,0,*5C
1495767873.52,59219,13.06,73780.0,-4.01,-4.65,-4.53,0,*56
1495767874.72,59220,13.06,73776.8,-3.99,-4.53,-4.61,0,*5E
1495767875.99,59221,13.06,73776.5,-4.01,-4.69,-4.69,0,*58
1495767877.24,59222,13.06,73776.8,-3.99,-4.77,-4.77,0,*5D
1495767878.51,59223,13.06,73778.5,-4.01,-4.85,-4.81,0,*5E
1495767879.74,59224,13.06,73778.5,-3.99,-4.73,-4.65,0,*5C
1495767880.98,59225,13.06,73780.3,-3.99,-4.77,-4.77,0,*5A
1495767882.18,59226,13.06,73776.3,-3.99,-4.49,-4.49,0,*59
1495767883.38,59227,13.06,73776.0,-3.99,-4.53,-4.49,0,*53
1495767884.58,59228,13.06,73778.0,-3.99,-4.61,-4.53,0,*56
1495767885.78,59229,13.06,73776.8,-3.99,-4.49,-4.53,0,*5D
1495767886.99,59230,13.06,73778.3,-3.99,-4.65,-4.61,0,*5A
1495767888.22,59231,13.06,73778.3,-3.99,-4.73,-4.65,0,*58
1495767889.42,59232,13.06,73776.3,-3.99,-4.61,-4.53,0,*5D
1495767890.65,59233,13.06,73774.3,-3.97,-4.13,-4.13,0,*53
1495767891.88,59234,13.06,73778.8,-3.97,-4.37,-4.37,0,*54
1495767893.11,59235,13.06,73778.3,-3.97,-4.37,-4.25,0,*56
1495767894.34,59236,13.06,73776.0,-3.97,-4.53,-4.41,0,*55
1495767895.57,59237,13.06,73776.5,-3.97,-4.61,-4.65,0,*53
1495767896.8,59238,13.06,73778.8,-3.93,-4.61,-4.57,0,*59
1495767897.99,59239,13.06,73780.0,-3.95,-4.49,-4.45,0,*57
1495767899.18,59240,13.06,73782.5,-3.95,-4.49,-4.49,0,*55
1495767900.43,59241,13.06,73782.3,-3.97,-4.77,-4.65,0,*55
1495767901.68,59242,13.06,73776.8,-3.95,-4.73,-4.73,0,*57
1495767902.92,59243,13.06,73778.3,-3.95,-4.69,-4.73,0,*5D
1495767904.14,59244,13.06,73782.3,-3.95,-4.69,-4.57,0,*5C
1495767905.34,59245,13.06,73778.8,-3.95,-4.57,-4.45,0,*53
1495767906.56,59246,13.06,73780.3,-3.95,-4.61,-4.69,0,*5B
1495767907.81,59247,13.06,73780.0,-3.95,-4.73,-4.69,0,*59
1495767909.05,59248,13.06,73778.0,-3.95,-4.73,-4.77,0,*59
1495767910.32,59249,13.06,73778.0,-3.97,-4.77,-4.77,0,*5E
1495767911.52,59250,13.06,73780.0,-3.95,-4.61,-4.61,0,*54
1495767912.72,59251,13.06,73778.8,-3.95,-4.49,-4.37,0,*5C
1495767913.92,59252,13.06,73778.3,-3.95,-4.57,-4.49,0,*59
1495767915.11,59253,13.06,73778.5,-3.95,-4.45,-4.45,0,*57
1495767916.34,59254,13.06,73782.3,-3.93,-4.21,-4.13,0,*57
1495767917.55,59255,13.06,73780.5,-3.93,-4.45,-4.45,0,*57
1495767918.78,59256,13.06,73776.0,-3.93,-4.61,-4.57,0,*51
1495767920.05,59257,13.06,73778.8,-3.93,-4.73,-4.73,0,*55
1495767921.27,59258,13.06,73778.0,-3.93,-4.61,-4.61,0,*5A
1495767922.5,59259,13.06,73780.5,-3.93,-4.61,-4.61,0,*5B
1495767923.72,59260,13.06,73780.8,-3.93,-4.57,-4.49,0,*5E
1495767924.95,59261,13.06,73782.8,-3.93,-4.33,-4.45,0,*51
1495767926.16,59262,13.06,73776.3,-3.93,-4.45,-4.37,0,*56
1495767927.39,59263,13.06,73778.5,-3.93,-4.33,-4.33,0,*52
1495767928.61,59264,13.06,73782.0,-3.93,-4.37,-4.37,0,*55
1495767929.83,59265,13.06,73778.8,-3.93,-4.45,-4.33,0,*55
1495767931.02,59266,13.06,73776.5,-3.91,-4.29,-4.33,0,*5E
1495767932.22,59267,13.06,73774.0,-3.91,-4.29,-4.29,0,*54
1495767933.43,59268,13.06,73776.8,-3.91,-4.33,-4.29,0,*50
1495767934.62,59269,13.06,73778.8,-3.91,-4.53,-4.45,0,*5D
1495767935.81,59270,13.13,73782.0,-3.91,-4.41,-4.45,0,*56
1495767937.01,59271,13.06,73776.3,-3.91,-4.41,-4.41,0,*53
1495767938.2,59272,13.06,73778.5,-3.91,-4.53,-4.41,0,*53
1495767939.43,59273,13.06,73778.5,-3.89,-4.57,-4.41,0,*5F
1495767940.66,59274,13.06,73774.0,-3.89,-4.57,-4.57,0,*5F
1495767941.85,59275,13.06,73776.5,-3.87,-4.53,-4.49,0,*5B
1495767943.07,59276,13.06,73778.3,-3.89,-4.45,-4.41,0,*59
1495767944.27,59277,13.06,73778.3,-3.87,-4.37,-4.29,0,*5D
1495767945.48,59278,13.06,73780.3,-3.89,-4.45,-4.45,0,*53
1495767946.68,59279,13.06,73782.0,-3.87,-4.25,-4.25,0,*5C
1495767947.91,59280,13.06,73776.5,-3.89,-4.21,-4.17,0,*51
1495767949.11,59281,13.06,73776.5,-3.87,-4.29,-4.29,0,*5B
1495767950.31,59282,13.06,73776.8,-3.87,-4.29,-4.29,0,*58
1495767951.51,59283,13.06,73778.3,-3.87,-4.41,-4.41,0,*59
1495767952.7,59284,13.06,73782.5,-3.87,-4.49,-4.41,0,*56
1495767953.89,59285,13.06,73780.0,-3.87,-4.41,-4.41,0,*5F
1495767955.09,59286,13.06,73776.3,-3.87,-4.37,-4.29,0,*53
1495767956.29,59287,13.06,73778.3,-3.87,-4.53,-4.53,0,*5D
1495767957.48,59288,13.06,73776.3,-3.87,-4.61,-4.53,0,*53
1495767958.68,59289,13.06,73782.5,-3.87,-4.65,-4.61,0,*57
1495767959.87,59290,13.06,73778.5,-3.87,-4.53,-4.49,0,*50
1495767961.07,59291,13.06,73776.5,-3.87,-4.53,-4.49,0,*51
1495767962.26,59292,13.06,73772.8,-3.87,-4.61,-4.61,0,*59
1495767963.46,59293,13.06,73776.5,-3.87,-4.65,-4.65,0,*58
1495767964.66,59294,13.06,73776.8,-3.83,-4.61,-4.61,0,*5B
1495767965.86,59295,13.06,73780.0,-3.83,-4.65,-4.65,0,*5A
1495767967.1,59296,13.06,73780.3,-3.83,-4.73,-4.73,0,*59
1495767968.37,59297,13.06,73776.5,-3.89,-4.69,-4.69,0,*52
1495767969.57,59298,13.06,73778.3,-3.87,-4.61,-4.65,0,*57
1495767970.77,59299,13.06,73778.5,-3.83,-4.61,-4.61,0,*56
1495767971.97,59300,13.06,73778.5,-3.83,-4.61,-4.61,0,*57
1495767973.24,59301,13.06,73776.8,-3.89,-4.73,-4.73,0,*5C
1495767974.51,59302,13.06,73776.5,-3.89,-4.73,-4.73,0,*5F
1495767975.79,59303,13.06,73780.5,-3.89,-4.81,-4.85,0,*5A
1495767977.03,59304,13.06,73776.0,-3.87,-4.69,-4.69,0,*57
1495767978.3,59305,13.06,73778.5,-3.89,-4.81,-4.81,0,*58
1495767979.57,59306,13.06,73778.8,-3.89,-4.85,-4.93,0,*5C
1495767980.84,59307,13.06,73780.0,-3.89,-4.81,-4.73,0,*57
1495767982.08,59308,13.06,73778.8,-3.87,-4.69,-4.69,0,*5B
1495767983.35,59309,13.06,73778.0,-3.89,-4.81,-4.73,0,*59
1495767984.63,59310,13.06,73778.5,-3.89,-4.81,-4.85,0,*58
1495767985.87,59311,13.06,73776.5,-3.89,-4.93,-4.99,0,*57
1495767987.14,59312,13.06,73780.3,-3.89,-4.85,-4.93,0,*59
1495767988.41,59313,13.06,73780.5,-3.89,-4.81,-4.81,0,*5F
1495767989.61,59314,13.06,73780.0,-3.87,-4.65,-4.61,0,*52
1495767990.86,59315,13.06,73776.8,-3.89,-4.69,-4.65,0,*55
1495767992.13,59316,13.06,73774.8,-3.89,-4.73,-4.73,0,*5A
1495767993.4,59317,13.06,73776.3,-3.89,-4.73,-4.81,0,*56
1495767994.67,59318,13.06,73778.5,-3.89,-4.85,-4.81,0,*50
1495767995.95,59319,13.06,73778.8,-3.89,-4.93,-4.85,0,*52
1495767997.22,59320,13.06,73776.3,-3.89,-4.85,-4.85,0,*5F
1495767998.49,59321,13.06,73776.5,-3.89,-4.73,-4.81,0,*53
1495767999.73,59322,13.06,73774.3,-3.91,-4.85,-4.81,0,*50
1495768000.98,59323,13.06,73778.0,-3.91,-4.85,-4.85,0,*55
1495768002.19,59324,13.06,73776.3,-3.91,-4.93,-4.99,0,*58
1495768003.46,59325,13.06,73780.5,-3.89,-4.85,-4.81,0,*5E
1495768004.7,59326,13.06,73776.8,-3.91,-4.73,-4.69,0,*5B
1495768005.95,59327,13.06,73780.5,-3.91,-4.73,-4.73,0,*51
1495768007.22,59328,13.06,73776.5,-3.89,-4.81,-4.81,0,*57
1495768008.46,59329,13.06,73778.3,-3.91,-4.85,-4.81,0,*5B
1495768009.71,59330,13.06,73778.8,-3.91,-4.85,-4.85,0,*57
1495768010.95,59331,13.06,73776.3,-3.91,-4.85,-4.85,0,*56
1495768012.14,59332,13.06,73778.5,-3.91,-4.99,-4.99,0,*55
1495768013.38,59333,13.06,73778.0,-3.91,-4.89,-4.93,0,*5F
1495768014.62,59334,13.06,73780.3,-3.91,-4.85,-4.93,0,*54
1495768015.86,59335,13.06,73778.5,-3.91,-4.85,-4.85,0,*52
1495768017.08,59336,13.06,73778.3,-3.93,-4.99,-4.99,0,*53
1495768018.34,59337,13.06,73780.0,-3.93,-4.77,-4.77,0,*52
1495768019.61,59338,13.06,73776.5,-3.93,-4.77,-4.73,0,*59
1495768020.87,59339,13.06,73776.8,-3.93,-4.77,-4.73,0,*58
1495768022.07,59340,13.06,73782.0,-3.91,-4.65,-4.65,0,*50
1495768023.29,59341,13.06,73778.0,-3.91,-4.69,-4.65,0,*5D
1495768024.56,59342,13.06,73776.8,-3.93,-4.73,-4.73,0,*50
1495768025.76,59343,13.06,73776.8,-3.91,-4.65,-4.65,0,*53
1495768026.98,59344,13.06,73778.3,-3.91,-4.69,-4.65,0,*58
1495768028.25,59345,13.06,73782.0,-3.93,-4.77,-4.85,0,*5A
1495768029.49,59346,13.06,73778.3,-3.91,-4.85,-4.81,0,*52
1495768030.76,59347,13.06,73776.0,-3.93,-4.85,-4.85,0,*55
1495768032.02,59348,13.06,73778.0,-3.93,-4.85,-4.77,0,*57
1495768033.29,59349,13.06,73778.5,-3.93,-4.77,-4.73,0,*5F
1495768034.55,59350,13.06,73776.8,-3.93,-4.77,-4.77,0,*53
1495768035.82,59351,13.06,73778.3,-3.93,-4.77,-4.85,0,*5F
1495768037.09,59352,13.06,73776.8,-3.93,-4.85,-4.89,0,*5D
1495768038.35,59353,13.06,73776.8,-3.93,-4.85,-4.77,0,*5D
1495768039.62,59354,13.06,73776.8,-3.93,-4.85,-4.77,0,*5A
1495768040.86,59355,13.06,73776.8,-3.91,-4.73,-4.73,0,*54
1495768042.1,59356,13.06,73776.0,-3.91,-4.73,-4.73,0,*57
1495768043.35,59357,13.06,73776.0,-3.91,-4.73,-4.69,0,*5D
1495768044.61,59358,13.06,73776.3,-3.93,-4.77,-4.73,0,*5F
1495768045.88,59359,13.06,73776.5,-3.93,-4.73,-4.73,0,*5A
1495768047.15,59360,13.06,73778.5,-3.93,-4.77,-4.85,0,*5D
1495768048.41,59361,13.06,73776.3,-3.93,-4.77,-4.77,0,*51
1495768049.66,59362,13.06,73778.3,-3.91,-4.73,-4.73,0,*50
1495768050.87,59363,13.06,73780.0,-3.91,-4.69,-4.65,0,*5D
1495768052.11,59364,13.06,73778.5,-3.91,-4.69,-4.69,0,*56
1495768053.38,59365,13.06,73774.5,-3.93,-4.85,-4.85,0,*55
1495768054.6,59366,13.06,73774.5,-3.91,-4.93,-4.99,0,*5E
1495768055.84,59367,13.06,73778.8,-3.91,-4.85,-4.85,0,*55
1495768057.08,59368,13.13,73780.0,-3.91,-4.85,-4.73,0,*53
1495768058.32,59369,13.06,73778.3,-3.91,-4.73,-4.73,0,*5B
1495768059.56,59370,13.06,73776.0,-3.91,-4.69,-4.69,0,*53
1495768060.81,59371,13.06,73776.5,-3.91,-4.81,-4.81,0,*52
1495768062.05,59372,13.06,73776.0,-3.93,-4.99,-4.85,0,*5E
1495768063.29,59373,13.06,73780.5,-3.91,-4.85,-4.85,0,*50
1495768064.53,59374,13.06,73776.5,-3.91,-4.93,-4.93,0,*57
1495768065.74,59375,13.06,73776.0,-3.91,-4.93,-4.99,0,*5C
1495768067.03,59376,13.06,73776.0,-3.93,-5.03,-5.03,0,*57
1495768068.25,59377,13.06,73780.0,-3.91,-5.07,-4.99,0,*52
1495768069.5,59378,13.06,73778.8,-3.93,-4.99,-4.89,0,*58
1495768070.77,59379,13.06,73778.3,-3.93,-4.89,-4.89,0,*58
1495768072.04,59380,13.06,73778.8,-3.93,-4.77,-4.77,0,*5E
1495768073.3,59381,13.06,73774.8,-3.93,-4.85,-4.77,0,*52
1495768074.57,59382,13.06,73776.3,-3.93,-4.77,-4.77,0,*5C
1495768075.76,59383,13.06,73776.0,-3.91,-4.53,-4.53,0,*5F
1495768076.96,59384,13.06,73776.8,-3.91,-4.53,-4.61,0,*59
1495768078.16,59385,13.06,73778.5,-3.91,-4.33,-4.33,0,*59
1495768079.38,59386,13.06,73774.8,-3.93,-4.33,-4.33,0,*58
1495768080.58,59387,13.06,73778.0,-3.91,-4.57,-4.45,0,*58
1495768081.77,59388,13.06,73776.0,-3.91,-4.45,-4.41,0,*50
1495768082.99,59389,13.06,73776.0,-3.91,-4.65,-4.69,0,*59
1495768084.23,59390,13.06,73776.8,-3.91,-4.69,-4.69,0,*5D
1495768085.43,59391,13.06,73776.5,-3.91,-4.65,-4.65,0,*5C
1495768086.67,59392,13.06,73780.5,-3.91,-4.69,-4.69,0,*5F
1495768087.91,59393,13.06,73776.3,-3.91,-4.69,-4.73,0,*55
1495768089.18,59394,13.06,73778.3,-3.93,-4.73,-4.69,0,*50
1495768090.45,59395,13.06,73778.0,-3.89,-4.69,-4.69,0,*51
1495768091.7,59396,13.06,73776.5,-3.87,-4.73,-4.73,0,*5C
1495768092.92,59397,13.06,73774.8,-3.89,-4.53,-4.53,0,*53
1495768094.16,59398,13.06,73776.8,-3.89,-4.57,-4.57,0,*5C
1495768095.38,59399,13.06,73778.8,-3.89,-4.65,-4.65,0,*5D
1495768096.62,59400,13.06,73776.3,-3.89,-4.57,-4.57,0,*5A
1495768097.81,59401,13.06,73778.5,-3.87,-4.49,-4.37,0,*5C
1495768099.08,59402,13.06,73776.0,-3.89,-4.69,-4.69,0,*58
1495768100.35,59403,13.06,73780.3,-3.89,-4.69,-4.69,0,*59
1495768101.63,59404,13.06,73774.8,-3.89,-4.73,-4.73,0,*5E
1495768102.9,59405,13.06,73774.0,-3.89,-4.81,-4.81,0,*5F
1495768104.14,59406,13.06,73776.5,-3.87,-4.77,-4.69,0,*5D
1495768105.37,59407,13.06,73776.5,-3.89,-4.65,-4.57,0,*5C
1495768106.6,59408,13.06,73780.3,-3.89,-4.65,-4.65,0,*52
1495768107.8,59409,13.06,73778.0,-3.87,-4.29,-4.29,0,*5D
1495768108.99,59410,13.06,73780.3,-3.87,-4.53,-4.53,0,*55
1495768110.19,59411,13.06,73780.3,-3.87,-4.29,-4.25,0,*58
1495768111.41,59412,13.06,73780.0,-3.89,-4.45,-4.41,0,*5D
1495768112.61,59413,13.06,73780.8,-3.87,-4.41,-4.37,0,*57
1495768113.81,59414,13.06,73780.0,-3.87,-4.29,-4.13,0,*58